Location: Poughquag
(41.6090°N, 73.6820°W)
Time: 12:32:58
(UTC-04:00)

Tiros 1 - Pass Details

Date: 06 June 2020
Orbit: 630 x 664 km, 48.4° (Epoch: 06 July)

Event Time Altitude Azimuth Distance (km) Brightness Sun altitude
Rises 09:25:38 0° 196° (SSW) 2,978 10.5 43.0°
Reaches altitude 10° 09:28:32 10° 179° (S) 2,067 9.9 43.5°
Maximum altitude 09:31:55 19° 134° (SE) 1,537 10.1 44.1°
Drops below altitude 10° 09:35:17 10° 89° (E) 2,065 10.8 44.7°
Sets 09:38:10 0° 72° (ENE) 2,974 11.2 45.3°
